Location: Dompnac
(44.5644°N, 4.1026°E)
Time: 02:24:37
(UTC+00:00)

USA 234 - Pass Details

Date: 18 January 2021
Orbit: 1100 x 1107 km, 123.0° (Epoch: 01 March)

Event Time Altitude Azimuth Distance (km) Brightness Sun altitude
Exits shadow 18:21:55 28° 61° (ENE) 1,940 4.0 -19.0°
Maximum altitude 18:24:28 38° 19° (NNE) 1,617 3.9 -19.4°
Drops below altitude 10° 18:30:24 10° 314° (NW) 2,968 6.0 -20.5°
Sets 18:33:03 0° 307° (NW) 3,928 6.8 -20.9°
